Location: Banksville Park
(38.5557°N, 75.1182°W)
Time: 19:02:48
(UTC+00:00)

SAR-Lupe-1 - Pass Details

Date: 20 January 2021
Orbit: 482 x 484 km, 98.2° (Epoch: 05 March)

Event Time Altitude Azimuth Distance (km) Brightness Sun altitude
Rises 10:22:01 0° 155° (SSE) 2,535 8.2 -21.8°
Reaches altitude 10° 10:24:07 10° 149° (SSE) 1,659 7.3 -21.4°
Maximum altitude 10:27:33 49° 74° (ENE) 630 4.9 -20.7°
Enters shadow 10:30:31 14° 1° (N) 1,458 6.4 -20.1°
